Molniya-1

operational
NORAD ID: 19807 Int'l Des: 1989-014 Owner: UNKS Country: SU
MEOELLIPTICALHEO_ELLIPTICALSEMI_SYNCMOLNIYA

About Molniya-1

Description loading...

Live Position

Loading 3D Globe...

Upcoming Passes

Altitude History

Altitude vs Time

uPlot chart will show altitude changes over time

Two-Line Element Set

1 19807U 89014A 25264.91867377 .00001263 00000-0 00000-0 0 9996
2 19807 63.7820 166.4215 6689051 257.5621 25.5701 2.00359682267900
Epoch: Sep 21, 2025 • Age: 320 hours

Current Status

Altitude 24493.4 km
Velocity 3.29 km/s
Sub-Earth Point 53.91°N, 166.92°W
Launch Date Feb 15, 1989
Age 36.6 years
Type other

Technical Details

Classification Payload
Mass 1650.00 kg
Dry Mass 1620.00 kg
Total Mass 1650.00 kg
Length 4.40 m
Diameter 1.40 m
Span 8.60 m
Shape Cyl + 6 Pan
Manufacturer NPOPM
Bus Type Molniya-1
Phase Status In Orbit
Owner/State UNKS/SU

Large Constellations

Loading constellations...